Location: Malvern Link
(52.1333°N, 2.3000°W)
Time: 05:32:34
(UTC+00:00)

Envisat - Pass Details

Date: 23 January 2022
Orbit: 764 x 765 km, 98.2° (Epoch: 25 May)

Event Time Altitude Azimuth Distance (km) Brightness Sun altitude
Rises 04:27:04 0° 20° (NNE) 3,244 6.6 -32.6°
Reaches altitude 10° 04:29:34 10° 29° (NNE) 2,313 5.9 -32.2°
Maximum altitude 04:34:14 36° 95° (E) 1,212 4.4 -31.5°
Drops below altitude 10° 04:38:53 10° 162° (SSE) 2,298 5.6 -30.8°
Sets 04:41:21 0° 171° (S) 3,220 6.3 -30.4°
